www.pogodaiklimat.ru

Погода и климат >> Архив погоды >> Сенегал >> Kedougou


ПОГОДА в Kedougou

  • Прогноз погоды в Kedougou
  • Монитор погоды в Kedougou
  • Климат города

АРХИВ ПОГОДЫ в Kedougou

Время (UTC), дата Ветер
(напр.,м/с)
 
Видим.   Явления Облачность Т
(С)
Тd
(С)
f
(%)
Тe
(С)
Тes
(С)
Комфортность P
(гПа)
Po
(гПа)
Тmin
(С)
Tmax
(С)
R
(мм)
R24
(мм)
S
(см)
12 17.04 штиль 0 10 км ясно +37.0 +13.2 24 +37 +66 опасность
солнечного
удара
1011.1 992.8
15 17.04 З 3 10 км 6/0
[Ci sp]
+41.5 +10.5 16 +40 +52 опасность
солнечного
удара
1006.8 988.6
18 17.04 В 1 10 км 3/0
[Ci sp]
+41.5 +11.6 17 +41 +42 опасность
перегрева
1006.4 988.1 +43.0
03 18.04 штиль 0 10 км ясно +29.5 +9.2 28 +29 +29 жарко 1008.6 990.3
06 18.04 З 2 10 км ясно +29.0 +8.3 27 +28 +28 жарко 1010.0 991.7 +27.5
09 18.04 З 4 10 км ясно +32.5 +13.9 32 +34 +38 очень
жарко
1012.0 993.5
12 18.04 С 2 10 км ясно +38.5 +11.4 20 +38 +59 опасность
солнечного
удара
1010.6 992.4
15 18.04 С 3 10 км ясно +42.0 +8.1 13 +40 +53 опасность
солнечного
удара
1008.2 990.0
18 18.04 С 3 10 км ясно +41.5 +11.0 16 +40 +41 очень
жарко
1006.8 988.5 +43.2
03 19.04 З 2 10 км ясно +31.0 +18.0 46 +35 +35 очень
душно
1010.1 991.9
06 19.04 З 3 10 км ясно +29.5 +18.8 53 +35 +35 очень
душно
1010.8 992.5 +28.9
09 19.04 ЮЗ 3 10 км ясно +32.0 +20.1 49 +38 +44 очень
душно
1012.0 993.5
12 19.04 З 3 10 км ясно +37.0 +17.2 31 +40 +57 опасность
солнечного
удара
1011.3 992.9
15 19.04 З 2 10 км ясно +40.0 +15.2 23 +41 +57 опасность
перегрева
1008.9 990.6
18 19.04 З 2 10 км 1/1 400 м
[Sc]
+39.5 +14.4 23 +40 +41 очень
душно
1007.4 989.1 +41.5
06 20.04 З 1 10 км ясно +28.0 +17.9 54 +32 +32 душно 1009.1 990.7 +27.4
09 20.04 З 3 10 км ясно +29.5 +17.9 50 +34 +40 очень
душно
1010.8 992.3
12 20.04 СЗ 1 10 км ясно +34.0 +16.1 34 +36 +61 опасность
солнечного
удара
1010.3 991.9
15 20.04 З 3 10 км ясно +38.5 +16.3 27 +40 +54 опасность
солнечного
удара
1007.2 988.9
18 20.04 С 2 10 км 3/0
[Ci sp]
+38.5 +14.0 23 +39 +40 душно 1006.0 987.7 +40.0
03 21.04 штиль 0 10 км ясно +27.0 +11.5 38 +28 +28 жарко 1008.0 989.6
06 21.04 З 2 10 км 5/0
[Ci sp]
+26.8 +9.3 33 +27 +27 жарко 1008.4 990.0 +26.2
09 21.04 З 2 10 км 8/0
[Ac trans Ci sp]
+31.0 +10.3 28 +31 +36 жарко 1010.2 991.7
12 21.04 СЗ 3 10 км 4/0
[Ci sp]
+35.8 +13.7 27 +37 +53 опасность
солнечного
удара
1010.1 991.8
15 21.04 Ю 2 10 км 6/0
[Ci sp]
+40.0 +12.3 19 +39 +55 опасность
солнечного
удара
1006.5 988.2
18 21.04 10 км ясно +40.2 +12.7 20 1005.3 987.0 +41.0
06 22.04 З 1 10 км 3/0
[Ci sp]
+28.0 +18.8 57 +33 +33 очень
душно
1008.6 990.2 +27.5
09 22.04 З 2 10 км ясно +31.0 +16.0 40 +34 +41 душно 1010.2 991.7
12 22.04 СЗ 1 10 км ясно +36.0 +14.7 28 +37 +62 опасность
солнечного
удара
1009.5 991.2
15 22.04 С 3 10 км ясно +40.0 +15.3 24 +41 +54 опасность
перегрева
1006.5 988.2
18 22.04 З 1 10 км ясно +40.0 +15.3 24 +41 +43 опасность
перегрева
1005.3 987.0 +41.5
03 23.04 З 2 10 км ясно +30.5 +10.8 30 +31 +31 жарко 1008.0 989.7
06 23.04 З 1 10 км ясно +28.5 +11.4 35 +29 +29 жарко 1009.7 991.3 +28.0
09 23.04 З 2 10 км 6/0
[Ac trans]
+32.0 +14.2 34 +34 +38 душно 1011.5 993.0
12 23.04 СЗ 2 10 км 1/0
[Ac trans]
+37.0 +12.7 23 +37 +57 опасность
солнечного
удара
1010.4 992.0
15 23.04 С 3 10 км 3/0
[Ci sp]
+40.6 +13.1 20 +41 +53 опасность
перегрева
1006.8 988.6
18 23.04 С 2 10 км 6/0
[Ac trans Ci sp]
+41.0 +13.6 20 +41 +42 опасность
перегрева
1005.7 987.4 +42.2
03 24.04 З 1 10 км 8/0
[Ac trans]
+33.5 +11.9 27 +34 +34 очень
жарко
1007.7 989.6
06 24.04 З 2 10 км 8/0
[Ac trans]
+30.0 +11.3 32 +31 +31 жарко 1009.6 991.4 +29.5
09 24.04 З 2 10 км 6/0
[Ac trans Ci sp]
+32.5 +17.0 40 +36 +42 очень
душно
1011.2 992.9

 

Местоположение метеостанции Kedougou (Сенегал): широта 12.57 долгота -12.21 высота над уровнем моря 167 м.

В архиве по умолчанию представлена погода в Kedougou за последнюю неделю. Архивные данные за месяц целиком и за предыдущие месяцы, начиная с января 2011 года, Вы можете получить, выбрав интересующий диапазон дат из раскрывающегося списка и нажав кнопку "Ввод!".


*Определитесь, кто Вы:
робот инопланетянин человек

Внимание! Время в таблицах - всемирное. Для получения местного времени необходимо прибавить поправку, которая в Kedougou равна 0 ч.

Смотрите также архив погоды в соседних городах и на ближайших метеорологических станциях:

Погода в Kenieba (Мали) (111 км)
Погода в Koundara (Гвинея) (141 км)
Погода в Fatoto (Гамбия) (195 км)
Погода в Tambacounda (Сенегал) (208 км)
Погода в Kayes (Мали) (223 км)
Погода в Basse (Гамбия) (230 км)
Погода в Bafata (Гвинея-Биссау) (271 км)
Погода в Kindia (Гвинея) (289 км)
Погода в Georgetown (Гамбия) (297 км)
Погода в Kolda (Сенегал) (300 км)

Пояснения к столбцам:

Ветер - указаны скорость ветра в м/с - средняя за 10 мин, порывы в срок и между сроками (в фигурных скобках) и направление, откуда дует ветер: С - северный, СВ - северо-восточный, В - восточный, ЮВ - юго-восточный, Ю - южный, ЮЗ - юго-западный, З - западный, СЗ - северо-западный.
Видимость - горизонтальная дальность видимости в метрах или километрах. При видимости от 1 до 10 км при отсутствии осадков обычно наблюдается дымка, при ухудшении видимости до 1 км и менее - туман. В сухую погоду видимость может ухудшаться дымом, пылью или мглою.
Явления - указаны атмосферные явления, наблюдавшиеся в срок или в последний час перед сроком; фигурными скобками обозначены явления, наблюдавшиеся между сроками (за 1-3 часа до срока); квадратными скобками обозначены град или гололедные отложения с указанием их диаметра в мм.
Облачность - указаны через наклонную черту общая и нижняя облачность в баллах и высота нижней границы облаков в метрах; квадратными скобками обозначены формы облаков: Ci - перистые, Cs - перисто-слоистые, Cc - перисто-кучевые, Ac - высококучевые, As - высокослоистые, Sc - слоисто-кучевые, Ns - слоисто-дождевые, Cu - кучевые, Cb - кучево-дождевые. Подробнее классификацию облаков см. в Атласе облаков (PDF).
T - Температура воздуха - температура, измеренная на высоте 2 м над землей.
Td - Температура точки росы - температура, при понижении до которой содержащийся в воздухе водяной пар достигнет насыщения.
f - Относительная влажность воздуха - влажноcть воздуха, измеренная на высоте 2 м над землей.
Te - Эффективная температура - температура, которую ощущает одетый по сезону человек в тени. Характеристика душности погоды. При расчете учитывается влияние влажности воздуха и скорости ветра на теплоощущения человека.
Tes - Эффективная температура на солнце - температура, которую ощущает человек, с поправкой на солнечный нагрев. Характеристика знойности погоды. Зависит от высоты солнца над горизонтом, облачности и скорости ветра. Ночью, в пасмурную погоду, а также при ветре 12 м/с и более поправка равна нулю.
P - Атмосферное давление - приведенное к уровню моря атмосферное давление.
Po - Атмосферное давление - измеренное на уровне метеостанции атмосферное давление.
Tmin - Минимальная температура - минимум температуры воздуха на высоте 2 м над землей.
Tmax - Максимальная температура - максимум температуры воздуха на высоте 2 м над землей.
R - Количество осадков - Количество выпавших осадков за период времени, мм. При наведении курсора мыши на число - период времени, за который выпало указанное количество осадков.
R24 - Количество осадков - Количество выпавших осадков за 24 часа, мм.
S - Снежный покров - Высота снежного покрова, см. При наведении курсора мыши на число - состояние снежного покрова и степень покрытия местности в баллах.